When you browse on this site, cookies collect data to enhance your experience and personalize the content and advertising you see.
Visit our Privacy Policy to learn more. By continuing to use the site, you agree to this use of cookies and data.
  • In Germany
  • List of Countries
  • For 7 days
  • Water Temperature
  • Satellite Maps
  • Weather Map
  • Weather Widgets
  • user-avatar
    Login

    Hourly Weather Nakhidka

    Today, 20 January, Sunday

    Time Temperature Precipitation Wind Pressure Humidity
    00:00 -2°C° 0 mm 3 mps 765 mmHg 79%
    01:00 -2°C° 0 mm 3 mps 765 mmHg 78%
    02:00 -4°C° 0 mm 3 mps 765 mmHg 77%
    03:00 -4°C° 0 mm 3 mps 765 mmHg 77%
    04:00 -4°C° 0 mm 3 mps 765 mmHg 77%
    05:00 -4°C° 0 mm 3 mps 765 mmHg 77%
    06:00 -4°C° 0 mm 3 mps 765 mmHg 77%
    07:00 -4°C° 0 mm 3 mps 765 mmHg 77%
    08:00 -3°C° 0 mm 4 mps 765 mmHg 77%
    09:00 -3°C° 0 mm 4 mps 765 mmHg 73%
    10:00 -2°C° 0 mm 4 mps 764 mmHg 70%
    11:00 -1°C° 0 mm 4 mps 764 mmHg 66%
    12:00 0°C° 0 mm 4 mps 764 mmHg 64%
    13:00 +1°C° 0 mm 4 mps 764 mmHg 62%
    14:00 +2°C° 0 mm 3 mps 763 mmHg 62%
    15:00 +2°C° 0 mm 3 mps 763 mmHg 68%
    16:00 +1°C° 0 mm 3 mps 762 mmHg 74%
    17:00 0°C° 0 mm 3 mps 762 mmHg 80%
    18:00 0°C° 0 mm 3 mps 762 mmHg 81%
    19:00 -1°C° 0 mm 3 mps 762 mmHg 83%
    20:00 -1°C° 0 mm 3 mps 761 mmHg 84%
    21:00 +1°C° 0 mm 2 mps 761 mmHg 84%
    22:00 +1°C° 0 mm 2 mps 761 mmHg 83%
    23:00 +1°C° 0 mm 2 mps 760 mmHg 83%

    Tomorrow, 21 January, Monday

    Time Temperature Precipitation Wind Pressure Humidity
    00:00 +2°C° 0 mm 2 mps 760 mmHg 84%
    01:00 +2°C° 0 mm 2 mps 759 mmHg 84%
    02:00 +2°C° 0 mm 2 mps 759 mmHg 85%
    03:00 +2°C° 0 mm 2 mps 758 mmHg 85%
    04:00 +2°C° 0 mm 3 mps 758 mmHg 85%
    05:00 +2°C° 0 mm 3 mps 757 mmHg 86%
    06:00 +3°C° 0.2 mm 3 mps 757 mmHg 85%
    07:00 +3°C° 0.2 mm 4 mps 756 mmHg 84%
    08:00 +4°C° 0.2 mm 4 mps 756 mmHg 83%
    09:00 +5°C° 0.3 mm 5 mps 756 mmHg 82%
    10:00 +6°C° 0.3 mm 5 mps 756 mmHg 82%
    11:00 +7°C° 0.3 mm 6 mps 756 mmHg 81%
    12:00 +5°C° 0 mm 6 mps 756 mmHg 84%
    13:00 +6°C° 0 mm 5 mps 756 mmHg 86%
    14:00 +5°C° 0 mm 5 mps 756 mmHg 88%
    15:00 +3°C° 0.1 mm 5 mps 757 mmHg 88%
    16:00 +2°C° 0.1 mm 5 mps 757 mmHg 88%
    17:00 +1°C° 0.1 mm 5 mps 758 mmHg 88%
    18:00 0°C° 0.1 mm 5 mps 758 mmHg 86%
    19:00 -1°C° 0.1 mm 5 mps 759 mmHg 84%
    20:00 -1°C° 0.1 mm 5 mps 760 mmHg 82%
    21:00 -2°C° 0 mm 5 mps 760 mmHg 81%
    22:00 -2°C° 0 mm 5 mps 761 mmHg 81%
    23:00 -4°C° 0 mm 5 mps 761 mmHg 80%

    Day after tomorrow, 22 January, Tuesday

    Time Temperature Precipitation Wind Pressure Humidity
    00:00 -3°C° 0 mm 4 mps 762 mmHg 80%
    01:00 -4°C° 0 mm 4 mps 762 mmHg 80%
    02:00 -4°C° 0 mm 4 mps 763 mmHg 80%
    03:00 -5°C° 0 mm 3 mps 763 mmHg 79%
    04:00 -5°C° 0 mm 3 mps 763 mmHg 78%
    05:00 -5°C° 0 mm 3 mps 763 mmHg 78%
    06:00 -5°C° 0 mm 3 mps 764 mmHg 77%
    07:00 -5°C° 0 mm 3 mps 764 mmHg 77%
    08:00 -5°C° 0 mm 3 mps 764 mmHg 76%
    09:00 -4°C° 0 mm 3 mps 764 mmHg 72%
    10:00 -4°C° 0 mm 3 mps 765 mmHg 68%
    11:00 -2°C° 0 mm 3 mps 765 mmHg 65%
    12:00 -2°C° 0 mm 3 mps 764 mmHg 64%
    13:00 -2°C° 0 mm 4 mps 764 mmHg 64%
    14:00 -2°C° 0 mm 4 mps 764 mmHg 63%
    15:00 -2°C° 0 mm 4 mps 763 mmHg 68%
    16:00 -3°C° 0 mm 4 mps 763 mmHg 73%
    17:00 -4°C° 0 mm 4 mps 763 mmHg 77%
    18:00 -5°C° 0 mm 5 mps 763 mmHg 77%
    19:00 -5°C° 0 mm 5 mps 763 mmHg 76%
    20:00 -5°C° 0 mm 5 mps 763 mmHg 75%
    21:00 -5°C° 0 mm 5 mps 762 mmHg 74%
    22:00 -4°C° 0 mm 5 mps 762 mmHg 73%
    23:00 -4°C° 0 mm 5 mps 762 mmHg 72%

    23 January, Wednesday

    Time Temperature Precipitation Wind Pressure Humidity
    00:00 -4°C° 0 mm 5 mps 762 mmHg 74%
    01:00 -4°C° 0 mm 5 mps 761 mmHg 75%
    02:00 -4°C° 0 mm 5 mps 761 mmHg 77%
    03:00 -3°C° 0 mm 4 mps 760 mmHg 80%
    04:00 -3°C° 0 mm 4 mps 760 mmHg 83%
    05:00 -3°C° 0 mm 4 mps 759 mmHg 87%
    06:00 -3°C° 0 mm 4 mps 759 mmHg 88%
    07:00 -3°C° 0 mm 4 mps 759 mmHg 90%
    08:00 -3°C° 0 mm 4 mps 759 mmHg 91%
    09:00 0°C° 0 mm 4 mps 758 mmHg 84%
    10:00 +3°C° 0 mm 4 mps 758 mmHg 76%
    11:00 +5°C° 0 mm 4 mps 758 mmHg 68%
    12:00 +6°C° 0 mm 4 mps 757 mmHg 68%
    13:00 +6°C° 0 mm 4 mps 757 mmHg 67%
    14:00 +7°C° 0 mm 4 mps 756 mmHg 67%
    15:00 +6°C° 0.1 mm 4 mps 756 mmHg 73%
    16:00 +5°C° 0.1 mm 4 mps 755 mmHg 78%
    17:00 +4°C° 0.1 mm 4 mps 755 mmHg 84%
    18:00 +5°C° 0 mm 4 mps 755 mmHg 83%
    19:00 +5°C° 0 mm 4 mps 755 mmHg 81%
    20:00 +5°C° 0 mm 4 mps 755 mmHg 80%
    21:00 +5°C° 0 mm 4 mps 755 mmHg 78%
    22:00 +5°C° 0 mm 4 mps 755 mmHg 77%
    23:00 +5°C° 0 mm 4 mps 755 mmHg 75%

    24 January, Thursday

    Time Temperature Precipitation Wind Pressure Humidity
    00:00 +5°C° 0.2 mm 4 mps 755 mmHg 77%
    01:00 +6°C° 0.2 mm 4 mps 755 mmHg 78%
    02:00 +6°C° 0.2 mm 4 mps 755 mmHg 79%
    03:00 +7°C° 0.2 mm 4 mps 754 mmHg 80%
    04:00 +7°C° 0.2 mm 4 mps 754 mmHg 81%
    05:00 +7°C° 0.2 mm 5 mps 754 mmHg 82%
    06:00 +7°C° 0 mm 4 mps 755 mmHg 84%
    07:00 +7°C° 0 mm 4 mps 755 mmHg 86%
    08:00 +8°C° 0 mm 3 mps 755 mmHg 88%
    09:00 +8°C° 0.1 mm 3 mps 755 mmHg 87%
    10:00 +9°C° 0.1 mm 2 mps 755 mmHg 86%
    11:00 +9°C° 0.1 mm 2 mps 755 mmHg 85%
    12:00 +10°C° 0 mm 2 mps 755 mmHg 82%
    13:00 +10°C° 0 mm 2 mps 754 mmHg 79%
    14:00 +12°C° 0 mm 2 mps 754 mmHg 77%
    15:00 +10°C° 0 mm 3 mps 754 mmHg 79%
    16:00 +9°C° 0 mm 3 mps 754 mmHg 82%
    17:00 +8°C° 0 mm 3 mps 753 mmHg 84%
    18:00 +6°C° 0 mm 4 mps 753 mmHg 84%
    19:00 +6°C° 0 mm 4 mps 753 mmHg 84%
    20:00 +5°C° 0 mm 4 mps 753 mmHg 84%
    21:00 +5°C° 0 mm 4 mps 753 mmHg 85%
    22:00 +5°C° 0 mm 4 mps 753 mmHg 87%
    23:00 +4°C° 0 mm 4 mps 752 mmHg 88%

    25 January, Friday

    Time Temperature Precipitation Wind Pressure Humidity
    00:00 +4°C° 0 mm 4 mps 752 mmHg 89%
    01:00 +4°C° 0 mm 4 mps 752 mmHg 89%
    02:00 +3°C° 0 mm 4 mps 752 mmHg 90%
    03:00 +3°C° 0 mm 4 mps 751 mmHg 90%
    04:00 +3°C° 0 mm 4 mps 751 mmHg 90%
    05:00 +1°C° 0 mm 4 mps 751 mmHg 90%
    06:00 +1°C° 0 mm 4 mps 751 mmHg 91%
    07:00 +1°C° 0 mm 4 mps 752 mmHg 91%
    08:00 +1°C° 0 mm 4 mps 752 mmHg 91%
    09:00 +4°C° 0 mm 3 mps 752 mmHg 85%
    10:00 +6°C° 0 mm 2 mps 752 mmHg 79%
    11:00 +9°C° 0 mm 1 mps 752 mmHg 74%
    12:00 +10°C° 0 mm 1 mps 752 mmHg 69%
    13:00 +10°C° 0 mm 1 mps 752 mmHg 65%
    14:00 +11°C° 0 mm 1 mps 752 mmHg 61%
    15:00 +9°C° 0 mm 2 mps 752 mmHg 67%
    16:00 +8°C° 0 mm 2 mps 752 mmHg 74%
    17:00 +8°C° 0 mm 2 mps 752 mmHg 81%
    18:00 +7°C° 0 mm 2 mps 752 mmHg 83%
    19:00 +7°C° 0 mm 2 mps 752 mmHg 86%
    20:00 +8°C° 0 mm 1 mps 752 mmHg 89%
    21:00 +7°C° 0 mm 1 mps 752 mmHg 90%
    22:00 +7°C° 0 mm 1 mps 752 mmHg 91%
    23:00 +7°C° 0 mm 1 mps 752 mmHg 92%
    Show more